• Join FlightAware (Why Join?)
  • Login
  • US Flag 
12:44PM EST


 

Airport Tracker/Info


-or-


 

Live Flight TrackerFlight Track Log ✈ N515KK ✈ 25-Sep-2013 ✈ KPIB - KMGM

Flight Track Log - Related Links

Times and Time Zones

All times are in EDT time to prevent confusion due to time zone crossing. See the N515KK flight status page for this flight to view local times or setup timezone preferences in your user account.

Time Position Orientation Groundspeed Altitude Reporting Facility
EDT Latitude Longitude Course Direction KTS MPH feet Rate Location/Type
12:20PM 31.5028 -89.2886 71° East 235 270 2,700  Level Houston Center
12:21PM 31.5281 -89.2206 66° East 231 266 4,800 1,839 Climbing Houston Center
12:23PM 31.5508 -89.1425 71° East 246 283 6,500 1,645 Climbing Houston Center
12:24PM 31.5775 -89.0508 71° East 286 329 8,200 1,776 Climbing Houston Center
12:25PM 31.6097 -88.9347 72° East 307 353 10,200 1,728 Climbing Houston Center
12:26PM 31.5949 -88.9044 71° East  Level Estimated
12:26PM 31.6375 -88.8378 71° East 311 358 11,800  Level Houston Center
12:27PM 31.6658 -88.7386 71° East 316 364 13,000 1,113 Climbing Houston Center
12:28PM 31.6961 -88.6331 71° East 333 383 14,100 1,210 Climbing Houston Center
12:29PM 31.7261 -88.5269 72° East 341 392 15,500 1,210 Climbing Houston Center
12:30PM 31.7561 -88.4206 72° East 342 394 16,600 1,065 Climbing Houston Center
12:31PM 31.7872 -88.3117 71° East 348 400 17,700 1,248 Climbing Houston Center
12:32PM 31.8228 -88.1778 73° East 354 407 19,200 1,286 Climbing Houston Center
12:32PM 31.8442 -88.1142 68° East 349 402 19,800 1,074 Climbing Atlanta Center
12:33PM 31.8750 -88.0031 72° East 349 402 20,900 600 Climbing Atlanta Center
12:34PM 31.9081 -87.8847 72° East 361 415 21,000 -450 Climbing Atlanta Center
12:35PM 31.9367 -87.7683 74° East 367 422 20,000 -1,350 Descending Atlanta Center
12:36PM 31.9669 -87.6619 71° East 360 414 18,300 500 Descending Atlanta Center
12:37PM 31.9953 -87.5456 74° East 354 407 21,000 -1,700 Climbing Atlanta Center
12:38PM 32.0253 -87.4389 72° East 347 399 14,900 -3,900 Descending Atlanta Center
12:39PM 32.0533 -87.3322 73° East 342 394 13,200 -1,700 Descending Atlanta Center
12:40PM 32.0833 -87.2231 72° East 337 388 11,500 -1,100 Descending Atlanta Center
12:41PM 32.1089 -87.1233 73° East 337 388 11,000 -250 Descending Atlanta Center
12:42PM 32.1342 -87.0311 72° East 309 356 11,000  Level Atlanta Center
12:43PM 32.1592 -86.9411 72° East 297 342 11,000 -250 Level Atlanta Center
12:44PM 32.1800 -86.8486 75° East 292 336 10,500 -1,250 Descending Atlanta Center
12:45PM 32.2217 -86.7664 59° Northeast 287 330 8,500 -2,000 Descending Atlanta Center
12:46PM 32.2669 -86.6967 52° Northeast 279 321 6,500 -1,900 Descending Atlanta Center
12:47PM 32.3039 -86.6239 59° Northeast 268 308 4,700 -1,900 Descending Atlanta Center
12:48PM 32.3161 -86.5458 79° East 232 267 2,700 -1,750 Descending Atlanta Center
12:49PM 32.3092 -86.4669 96° East 232 267 1,200 -1,200 Descending Atlanta Center
12:50PM 32.3019 -86.4150 99° East 206 237 300 -450 Descending Atlanta Center
12:51PM 32.3033 -86.3439 89° East 206 237 300  Level Atlanta Center
12:53PM 32.3000 -86.3833 270° West  Level FlightAware Approximate